Location: Bushrod
(6.3500°N, 10.7833°W)
Time: 07:19:33
(UTC+00:00)

Cosmos 1939 Rocket - Pass Details

Date: 17 September 2019
Orbit: 535 x 583 km, 97.4° (Epoch: 22 October)

Event Time Altitude Azimuth Distance (km) Brightness Sun altitude
Exits shadow 20:13:00 55° 193° (SSW) 653 3.1 -23.4°
Maximum altitude 20:13:43 74° 258° (WSW) 566 2.9 -23.6°
Drops below altitude 10° 20:17:35 10° 344° (NNW) 1,791 5.7 -24.6°
Sets 20:19:41 0° 346° (NNW) 2,676 6.6 -25.1°
